Location: Remedello Sotto
(45.2500°N, 10.3667°E)
Time: 15:55:19
(UTC+00:00)

Tiangong - Visible Passes

Search period start: 09 June 2023 00:00
Search period end: 19 June 2023 00:00
Orbit: 386 x 390 km, 41.5° (Epoch: 09 June)

Date Brightness Start Highest point End Pass type
(mag) Time Alt. Az. Time Alt. Az. Time Alt. Az.
09 Jun -1.3 01:11:32 35° SE 01:11:32 35° SE 01:14:00 10° ESE visible
09 Jun -1.4 02:44:38 10° WSW 02:47:36 35° S 02:50:34 10° ESE visible
10 Jun -1.7 01:47:53 27° SW 01:49:04 40° S 01:52:06 10° ESE visible
11 Jun -0.4 00:52:06 22° ESE 00:52:06 22° ESE 00:53:31 10° ESE visible
11 Jun -1.1 02:24:23 11° WSW 02:27:03 27° SSW 02:29:50 10° SE visible
12 Jun -1.3 01:28:53 33° S 01:28:53 33° S 01:31:24 10° ESE visible
13 Jun -0.7 02:06:09 20° SSW 02:06:17 20° SSW 02:08:41 10° SSE visible
15 Jun -0.2 19:55:32 10° S 19:57:11 13° SSE 19:58:49 10° ESE visible
15 Jun 0.2 21:30:37 10° SW 21:31:09 14° SW 21:31:09 14° SW visible
16 Jun -1.1 20:31:59 10° SW 20:34:44 27° SSE 20:35:58 21° SE visible
16 Jun 0.7 22:08:15 10° WSW 22:08:16 10° WSW 22:08:16 10° WSW visible
17 Jun -1.7 21:09:24 10° WSW 21:12:24 40° S 21:12:30 39° S visible
18 Jun -1.4 20:10:34 10° WSW 20:13:29 34° S 20:16:24 10° ESE visible
18 Jun -0.5 21:47:05 10° WSW 21:48:39 24° WSW 21:48:39 24° WSW visible
